[[{"header":{"parameterUnit":"m.s-1","parameterCategory":1,"la1":30.2991,"la2":30.254,"lo1":-89.0895,"lo2":-89.0444,"dy":0.0017,"dx":0.0017,"nx":28,"ny":28,"refTime":"2024-07-29T09:00:00:Z","depth":0,"parameterNumber":2,"parameterNumberName":"U-component_of_WINDS"},"data":[0,0,0,0,0,0,0,0,0,0,0,0,0,0,0,0,0,0,0,0,0,0,0,0,0,0,0,0,0,0,0,0,0,0,0,0,0,0,0,0,0,0,0,0,0,0,0,0,0,0,0,0,0,0,0,0,0,0,2.431,2.431,0,2.4335,2.4335,2.4335,2.4257,2.4255,2.4252,2.425,2.428,2.4283,2.4286,0,0,0,0,0,0,0,0,0,0,0,0,0,2.4196,2.4199,2.431,2.431,2.431,2.4335,2.4335,2.4335,2.4258,2.4255,2.4252,2.4249,2.4279,2.4283,2.4286,0,0,0,0,0,0,0,0,0,0,0,0,0,2.4236,2.4199,2.431,2.4274,2.4271,2.4335,2.4335,2.4335,2.4258,2.4255,2.4251,2.4248,2.4278,2.4282,2.4287,2.4387,0,0,2.4301,2.4303,0,0,0,0,0,0,0,0,2.4234,2.424,2.4279,2.4277,2.4274,2.4289,2.4306,2.4353,2.4259,2.4263,2.425,2.4246,2.4286,2.429,2.4303,2.4388,2.4389,2.4301,2.4304,2.4306,2.4307,0,0,0,0,0,0,0,2.4231,2.4239,2.432,2.428,2.4276,2.4258,2.4259,2.4314,2.4295,2.4263,2.4257,2.4261,2.4284,2.4299,2.4303,2.439,2.4301,2.4305,2.4308,2.431,2.4555,2.4558,0,0,0,0,0,0,2.4232,2.4237,2.4319,2.432,2.4244,2.4263,2.4265,2.4288,2.4294,2.4291,2.4264,2.4257,2.4293,2.4298,2.4304,2.4418,2.4306,2.431,2.4313,2.4551,2.4555,2.456,0,0,0,0,0,0,2.423,2.4241,2.4318,2.4277,2.4285,2.4268,2.4295,2.429,2.4304,2.4295,2.4291,2.4282,2.429,2.4297,2.4365,2.4418,2.4312,2.4316,2.4546,2.4552,2.4558,2.465,0,0,0,0,0,0,2.4227,2.424,2.4278,2.4278,2.4288,2.4379,2.4298,2.4293,2.4312,2.4303,2.4311,2.4309,2.4288,2.4359,2.437,2.4423,2.432,2.4542,2.4549,2.4556,2.4642,2.4658,2.4672,0,0,0,0,0,2.4224,2.4305,2.428,2.4291,2.4334,2.4382,2.4388,2.4361,2.4317,2.4354,2.4347,2.4308,2.4411,2.4367,2.4378,2.4433,2.4538,2.4547,2.4555,2.4636,2.4655,2.4672,0,0,0,0,0,0,2.4314,2.4304,2.4277,2.4361,2.4373,2.4369,2.4416,2.4383,2.4409,2.44,2.4366,2.4369,2.4443,2.4445,2.4396,2.4528,2.4467,2.4478,2.4524,2.4543,2.4557,2.4555,2.4324,0,0,0,0,0,2.4343,2.4382,2.4372,2.4447,2.4454,2.4434,2.4454,2.4431,2.4443,2.4448,2.4447,2.4461,2.4495,2.4519,2.4551,2.4642,2.4642,2.4685,2.47,2.4712,2.4723,2.4768,2.4787,2.4588,2.4587,2.4587,0,0,2.4405,2.4404,2.4431,2.4465,2.4471,2.4512,2.4439,2.4486,2.4516,2.4456,2.4519,2.4518,2.4531,2.4611,2.4646,2.4615,2.4777,2.4723,2.4733,2.4737,2.4779,2.4798,2.4814,2.4593,2.4592,2.4591,0,0,2.4537,2.4541,2.4602,2.4609,2.4619,2.4605,2.4619,2.462,2.4616,2.4679,2.4634,2.4669,2.4731,2.4741,2.4754,2.4886,2.4851,2.4898,2.4975,2.502,2.5036,2.5049,2.5095,2.5111,2.4908,2.4908,2.4908,0,2.4613,2.4672,2.4639,2.4687,2.4703,2.4647,2.4708,2.4717,2.4738,2.475,2.4715,2.4788,2.4793,2.4872,2.4904,2.4917,2.4932,2.4897,2.5036,2.5049,2.5061,2.5104,2.5122,2.4913,2.4913,2.4912,2.4912,0,2.4763,2.4804,2.4853,2.487,2.4891,2.4947,2.4922,2.4947,2.4922,2.4911,2.4974,2.4977,2.5007,2.5025,2.5002,2.51,2.508,2.5041,2.4979,2.5086,2.5126,2.5142,2.4921,2.4919,2.4918,2.4916,0,0,2.4956,2.4951,2.4969,2.4975,2.498,2.5012,2.5064,2.5091,2.5112,2.5127,2.5169,2.5221,2.5183,2.5198,2.5176,2.5215,2.5316,2.517,2.517,2.5196,2.5422,2.5451,2.5471,2.5293,2.5296,2.5298,2.542,0,2.5084,2.5171,2.5141,2.5229,2.5266,2.5212,2.5257,2.5265,2.5255,2.5285,2.5275,2.5311,2.526,2.5268,2.5305,2.5297,2.5361,2.5287,2.5331,2.5333,2.5329,2.5492,2.5523,2.5638,2.5436,2.5439,2.5441,0,2.5247,2.5265,2.5356,2.5351,2.5365,2.5406,2.5427,2.5456,2.5463,2.5454,2.5468,2.5437,2.5487,2.5424,2.5492,2.5442,2.5458,2.5456,2.546,2.5463,2.5393,2.5498,2.5675,2.5692,2.5465,2.5463,2.5461,0,2.5375,2.5423,2.5483,2.549,2.5486,2.5516,2.5516,2.5519,2.5536,2.5555,2.5565,2.559,2.5604,2.5624,2.5599,2.5556,2.567,2.5606,2.5663,2.5663,2.5689,2.5688,2.587,2.5701,2.5701,2.5701,2.57,0,2.5522,2.5579,2.554,2.5577,2.5639,2.5603,2.5666,2.5661,2.5663,2.5698,2.5654,2.5688,2.5654,2.5684,2.5666,2.5723,2.573,2.5724,2.5718,2.5727,2.5728,2.5737,2.5728,2.5705,2.5704,2.5703,2.5703,0,2.5676,2.5652,2.5713,2.5703,2.5702,2.5748,2.574,2.5774,2.576,2.5804,2.5812,2.5792,2.5825,2.5802,2.5836,2.5823,2.5898,2.5882,2.5895,2.589,2.5948,2.5942,2.6142,2.6166,2.5983,2.5985,2.5986,0,2.5771,2.5813,2.5807,2.5825,2.5827,2.5859,2.5875,2.5841,2.586,2.5869,2.5901,2.593,2.5951,2.6006,2.5995,2.602,2.6003,2.6071,2.6007,2.6013,2.6002,2.5999,2.6002,2.6084,2.6086,2.6088,2.609,0,2.5941,2.5926,2.5949,2.5968,2.5988,2.6002,2.6012,2.6031,2.5996,2.6019,2.6051,2.6067,2.6099,2.6128,2.6148,2.6149,2.6114,2.611,2.6124,2.6133,2.6138,2.6135,2.5929,2.6105,2.6104,2.6103,2.6102,2.6101,2.6067,2.6101,2.61,2.6127,2.6131,2.6141,2.617,2.6159,2.6184,2.6206,2.6185,2.6223,2.6227,2.6249,2.6254,2.6283,2.6255,2.6276,2.6282,2.6287,2.6294,2.6134,2.6287,2.6286,2.6286,2.6286,2.6285,0,2.6233,2.6229,2.6254,2.6268,2.6289,2.6251,2.626,2.628,2.6313,2.6319,2.6339,2.6374,2.6401,2.639,2.6414,2.6439,2.6423,2.6446,2.6444,2.6444,2.6319,2.6303,2.6458,2.6458,2.6458,2.6458,2.6458,2.6458,2.6322,2.6376,2.636,2.6415,2.6411,2.6445,2.6453,2.6462,2.6465,2.6506,2.6527,2.6519,2.6517,2.6539,2.6562,2.6558,2.6568,2.6597,2.6587,2.647,2.6453,2.6437,2.6422,2.6599,2.66,2.6709,2.671,2.6711]},{"header":{"parameterUnit":"m.s-1","parameterCategory":1,"la1":30.2991,"la2":30.254,"lo1":-89.0895,"lo2":-89.0444,"dy":0.0017,"dx":0.0017,"nx":28,"ny":28,"refTime":"2024-07-29T09:00:00:Z","depth":0,"parameterNumber":3,"parameterNumberName":"V-component_of_WINDS"},"data":[0,0,0,0,0,0,0,0,0,0,0,0,0,0,0,0,0,0,0,0,0,0,0,0,0,0,0,0,0,0,0,0,0,0,0,0,0,0,0,0,0,0,0,0,0,0,0,0,0,0,0,0,0,0,0,0,0,0,4.9451,4.9452,0,4.956,4.9561,4.9562,4.9533,4.953,4.9528,4.9526,4.9631,4.9635,4.964,0,0,0,0,0,0,0,0,0,0,0,0,0,4.9211,4.9215,4.9451,4.9453,4.9454,4.9559,4.9561,4.9562,4.9533,4.953,4.9528,4.9525,4.9629,4.9635,4.9641,0,0,0,0,0,0,0,0,0,0,0,0,0,4.9317,4.9217,4.9451,4.9452,4.9453,4.9559,4.9561,4.9563,4.9534,4.953,4.9527,4.9524,4.9627,4.9634,4.9641,4.9751,0,0,4.9663,4.9667,0,0,0,0,0,0,0,0,4.9311,4.9326,4.9451,4.9452,4.9454,4.9529,4.9514,4.9626,4.9534,4.9503,4.9526,4.9522,4.9599,4.9609,4.9636,4.9756,4.976,4.9664,4.9668,4.9672,4.9674,0,0,0,0,0,0,0,4.9303,4.9321,4.9494,4.9452,4.9454,4.9445,4.9456,4.9535,4.9568,4.9505,4.9504,4.9517,4.9599,4.9629,4.9638,4.9762,4.9664,4.967,4.9675,4.9678,4.9974,4.9977,0,0,0,0,0,0,4.9296,4.9315,4.949,4.9497,4.9373,4.9452,4.9464,4.9508,4.9567,4.9573,4.952,4.9515,4.9618,4.963,4.9642,4.9772,4.9671,4.9678,4.9682,4.997,4.9974,4.9978,0,0,0,0,0,0,4.9291,4.9312,4.9486,4.9406,4.9427,4.9459,4.9509,4.9512,4.9542,4.9578,4.9583,4.9545,4.9616,4.9631,4.9724,4.9775,4.9681,4.9688,4.9966,4.9971,4.9976,5.0035,0,0,0,0,0,0,4.9284,4.931,4.9354,4.9407,4.9431,4.9569,4.9512,4.9517,4.9555,4.955,4.9602,4.9608,4.9615,4.9713,4.9731,4.9784,4.9694,4.9961,4.9968,4.9975,5.0029,5.0042,5.0053,0,0,0,0,0,4.9276,4.9365,4.9357,4.9378,4.9487,4.9572,4.9586,4.9594,4.9559,4.9602,4.9625,4.9606,4.9767,4.9723,4.9743,4.9798,4.9958,4.9966,4.9974,5.0023,5.0039,5.0053,0,0,0,0,0,0,4.9316,4.9372,4.9363,4.9473,4.9518,4.9567,4.9622,4.9611,4.9665,4.9658,4.9664,4.9676,4.977,4.9793,4.9743,4.9906,4.9857,4.9869,4.9887,4.9903,4.9915,4.9907,4.97,0,0,0,0,0,4.9338,4.9405,4.9449,4.9542,4.9565,4.959,4.9627,4.9629,4.9675,4.9693,4.9723,4.9766,4.9826,4.9866,4.9923,5.0031,5.0041,5.0079,5.0091,5.0101,5.0111,5.0168,5.0185,5.0004,5.0004,5.0004,0,0,4.9384,4.9423,4.9464,4.9551,4.9586,4.9652,4.9606,4.9678,4.9726,4.9704,4.9793,4.9816,4.9864,4.9965,5.001,4.9987,5.0163,5.0111,5.0119,5.0124,5.0178,5.0195,5.021,5.001,5.0009,5.0008,0,0,4.9501,4.9538,4.9619,4.9655,4.9709,4.9725,4.9744,4.9794,4.9809,4.9899,4.9883,4.9939,5.0043,5.0078,5.0109,5.0237,5.0221,5.0255,5.0319,5.0374,5.0388,5.0401,5.0445,5.0461,5.0266,5.0266,5.0266,0,4.955,4.9652,4.9661,4.9735,4.9772,4.9756,4.9836,4.987,4.9939,4.9964,4.9937,5.0067,5.0098,5.0205,5.0237,5.0263,5.0283,5.025,5.0386,5.0399,5.041,5.0453,5.047,5.0269,5.0269,5.0269,5.0268,0,4.9709,4.978,4.9838,4.9907,4.9951,5.0027,5.0045,5.0088,5.0086,5.0103,5.0193,5.023,5.0294,5.032,5.0318,5.0426,5.041,5.0385,5.0336,5.0431,5.0471,5.0488,5.0275,5.0274,5.0272,5.0271,0,0,4.9856,4.9929,4.995,4.998,5.0038,5.0092,5.0166,5.023,5.0266,5.0313,5.0374,5.0462,5.0438,5.0474,5.0475,5.0524,5.0621,5.0492,5.0493,5.0514,5.0741,5.0759,5.0778,5.0611,5.0614,5.0616,5.0736,0,4.9978,5.0112,5.0121,5.024,5.0304,5.0288,5.0352,5.0393,5.0411,5.0465,5.0483,5.0545,5.051,5.0531,5.0579,5.0599,5.0666,5.0591,5.0665,5.0668,5.0653,5.0799,5.0819,5.0931,5.0752,5.0755,5.0756,0,5.0138,5.0192,5.0319,5.0367,5.0393,5.0452,5.051,5.0563,5.0608,5.0617,5.0656,5.065,5.0723,5.0672,5.0771,5.0719,5.075,5.0764,5.0768,5.0775,5.0718,5.0809,5.0967,5.0983,5.0781,5.0779,5.0777,0,5.0231,5.0336,5.0425,5.0451,5.0509,5.055,5.0575,5.0617,5.0655,5.0705,5.0728,5.0786,5.0817,5.086,5.0868,5.083,5.0967,5.0917,5.0975,5.0975,5.1004,5.1002,5.1169,5.1025,5.1025,5.1024,5.1024,0,5.0366,5.0444,5.0467,5.0522,5.0607,5.0615,5.0699,5.0721,5.0758,5.0815,5.0804,5.0856,5.0865,5.0919,5.0925,5.1006,5.102,5.1027,5.1028,5.1028,5.1027,5.1048,5.104,5.1029,5.1028,5.1027,5.1026,0,5.0485,5.0504,5.06,5.0647,5.066,5.0721,5.076,5.081,5.0826,5.0898,5.0915,5.0939,5.1001,5.1014,5.1088,5.1092,5.1187,5.1181,5.1173,5.1172,5.1229,5.1223,5.1414,5.1439,5.128,5.1281,5.1282,0,5.0569,5.0629,5.0683,5.0721,5.0749,5.081,5.0848,5.0857,5.0897,5.0952,5.0995,5.1057,5.1107,5.1207,5.1229,5.1285,5.1279,5.1342,5.1287,5.1285,5.1279,5.1275,5.128,5.1352,5.1354,5.1356,5.1357,0,5.0717,5.0723,5.0781,5.0841,5.0887,5.0934,5.0979,5.101,5.1024,5.1069,5.1134,5.1173,5.1248,5.1309,5.1364,5.1387,5.1374,5.1374,5.139,5.1391,5.1383,5.1387,5.1201,5.1369,5.1368,5.1367,5.1366,5.1366,5.0821,5.0873,5.0918,5.0981,5.1016,5.1058,5.1108,5.113,5.1185,5.1249,5.1249,5.132,5.136,5.1433,5.146,5.1513,5.1493,5.1517,5.1522,5.1528,5.1533,5.1375,5.1523,5.1523,5.1522,5.1522,5.1522,0,5.0967,5.0995,5.1054,5.1117,5.1166,5.1151,5.1199,5.124,5.1303,5.1343,5.1393,5.1466,5.1524,5.1551,5.1608,5.1645,5.164,5.1659,5.1656,5.1661,5.1548,5.1528,5.1662,5.1662,5.1662,5.1662,5.1662,5.1662,5.1049,5.1135,5.1146,5.1249,5.1276,5.1346,5.1375,5.1412,5.1444,5.1527,5.1576,5.1594,5.1627,5.1686,5.1738,5.1744,5.1765,5.1787,5.179,5.1684,5.1669,5.1656,5.1637,5.1792,5.1792,5.1898,5.1899,5.19]}]]